Regional Weather Roundup
Issued by NWS

Home | Current Version | Previous Version | Text Only | Print | Product List | Glossary Off
Versions: 1 2 3 4 5 6 7 8 9 10 11 12 13 14 15 16 17 18 19 20 21 22 23 24 25 26 27 28 29 30 31 32 33 34 35 36 37 38 39 40 41 42 43 44 45 46 47 48 49 50

000
ASUS43 KLOT 260006
RWRIL

ILLINOIS REGIONAL WEATHER ROUNDUP
NATIONAL WEATHER SERVICE CHICAGO/ROMEOVILLE IL
700 PM CDT SAT OCT 25 2014

NOTE: "FAIR" INDICATES FEW OR NO CLOUDS BELOW 12,000 FEET WITH NO
SIGNIFICANT WEATHER AND/OR OBSTRUCTIONS TO VISIBILITY.

* THESE STATIONS ARE NOT UNDER NWS QUALITY CONTROL. THEY ALSO MAY NOT
  REPORT WEATHER SUCH AS PRECIPITATION OR FOG.

ILZ001-002-007-009-015-016-024-260100-
NORTHWEST ILLINOIS

CITY           SKY/WX    TMP DP  RH WIND       PRES   REMARKS
MOLINE         CLEAR     62  34  35 NW7       30.00S
6HR MIN TEMP:  62; 6HR MAX TEMP:  73;

STERLING*      CLEAR     57  34  41 NW9       29.99R
SAVANNA*       CLEAR     63  31  30 NW7       29.99S
$$

ILZ003-004-008-010-011-017-018-260100-
NORTH CENTRAL ILLINOIS

CITY           SKY/WX    TMP DP  RH WIND       PRES   REMARKS
ROCKFORD       CLEAR     60  30  32 W10       29.99R
6HR MIN TEMP:  60; 6HR MAX TEMP:  71;

FREEPORT*      CLEAR     56  32  40 W7        29.99S
ROCHELLE*      CLEAR     53  33  47 W8        29.98R
DE KALB*       CLEAR     58  31  36 W9        29.97R
PERU*          CLEAR     60  35  39 W10       29.99R
$$

ILZ005-006-012>014-019>023-260100-
NORTHEAST ILLINOIS

CITY           SKY/WX    TMP DP  RH WIND       PRES   REMARKS
CHICAGO-OHARE  CLEAR     63  28  26 W13       29.93R
6HR MIN TEMP:  63; 6HR MAX TEMP:  72;

CHICAGO-MIDWAY CLEAR     67  27  22 W12       29.92R
6HR MIN TEMP:  66; 6HR MAX TEMP:  75;

AURORA         CLEAR     53  32  44 W8        29.96R
6HR MIN TEMP:  53; 6HR MAX TEMP:  74;

LANSING*       CLEAR     65  29  25 NW8       29.93R
JOLIET*        CLEAR     62  32  32 W3        29.95R
WAUKEGAN       CLEAR     59  27  29 W5        29.92R
6HR MIN TEMP:  59; 6HR MAX TEMP:  70;

DUPAGE AIRPORT CLEAR     61  30  31 W10       29.94R
6HR MIN TEMP:  60; 6HR MAX TEMP:  73;

KANKAKEE*      CLEAR     62  36  38 W9        29.95S
WHEELING       CLEAR     64  29  26 W8        29.94R
6HR MIN TEMP:  64; 6HR MAX TEMP:  73;

MORRIS*        CLEAR     57  36  44 W7        29.95R
ROMEOVILLE*    CLEAR     62  29  28 NW7       29.95R
NORTHERLY ISL    N/A     67  26  21 NW10        N/A
$$

LMZ740>746-260100-
SOUTHERN LAKE MICHIGAN

STATION/POSITION SKY/WX   TEMP    WIND        PRES    VSBY  WAVE
                          AIR SEA DIR/SP/G                  HT/PER
                          (F)     (DEG/KT/KT) (MB)    (MI)  (FT/S)
SOUTHERN BUOY              58 54  290/ 16/ 17 1011.8R         2/ 3
WAUKEGAN HARBOR            65     300/  7/ 12   N/A
HARRISON CRIB              68     290/ 15/ 19   N/A
BURNHAM HARBOR             66     280/  9/ 14   N/A
CALUMET HARBOR             66     260/  4/  6 1011.9R
MICHIGAN CITY              60     270/ 11/ 13   N/A
$$

ILZ025>027-034>036-040-047-049-050-058-095>099-260100-
WEST-CENTRAL ILLINOIS

CITY           SKY/WX    TMP DP  RH WIND       PRES   REMARKS
QUINCY         HAZE      67  43  41 CALM      30.02S VSB 1
GALESBURG*     CLEAR     56  38  50 CALM      30.01F
MACOMB*        CLEAR     55  42  62 NW5       30.04S
JACKSONVILLE*  CLEAR     65  47  50 CALM      30.02R
PITTSFIELD*    CLEAR     69  46  44 NW3       30.03S
$$

ILZ028>032-037-038-041>044-048-051>054-059>061-260100-
CENTRAL ILLINOIS

CITY           SKY/WX    TMP DP  RH WIND       PRES   REMARKS
PONTIAC        CLEAR     62  38  42 W9        29.98R
BLOOMINGTON    CLEAR     64  41  43 W7        30.00S
DECATUR        CLEAR     68  47  46 NW8       30.00S
PEORIA         CLEAR     67  38  34 NW5       30.00S
6HR MIN TEMP:  67; 6HR MAX TEMP:  78;

LACON*         CLEAR     62  35  36 W5        29.99R
LINCOLN*       CLEAR     66  42  41 CALM      29.98R
SPRINGFIELD    CLEAR     66  45  46 NW7       30.00S
6HR MIN TEMP:  62; 6HR MAX TEMP:  81;

TAYLORVILLE    CLEAR     66  46  48 W6        30.00S
$$

ILZ033-039-045-046-055>057-062-063-260100-
EAST-CENTRAL ILLINOIS

CITY           SKY/WX    TMP DP  RH WIND       PRES   REMARKS
CHAMPAIGN      CLEAR     60  46  59 W6        29.98S
DANVILLE*      CLEAR     61  42  49 W8        29.93S
RANTOUL*       CLEAR     63  45  52 W8        29.97R
MATTOON        CLEAR     66  45  46 W7        29.98S
PARIS*         CLEAR     65  48  55 NW7       29.98R
$$

ILZ079-100>102-260100-
SOUTHWEST ILLINOIS

CITY           SKY/WX    TMP DP  RH WIND       PRES   REMARKS
BELLEVILLE     CLEAR     66  57  73 CALM      30.00R
CAHOKIA*       CLEAR     65  54  67 CALM      30.01R
SPARTA*        CLEAR     70  56  61 CALM      30.01S
$$

ILZ064>066-069>071-074>076-080>082-084>086-088>090-092>094-260100-
SOUTH-CENTRAL ILLINOIS

CITY           SKY/WX    TMP DP  RH WIND       PRES   REMARKS
CARBONDALE     CLEAR     64  54  69 CALM      30.01R
6HR MIN TEMP:  64; 6HR MAX TEMP:  81;

CAIRO*         CLEAR     67  60  75 CALM      30.01R
EFFINGHAM*     CLEAR     64  49  59 CALM      30.00R
MARION         CLEAR     64  57  77 CALM      30.01S
MT. VERNON     CLEAR     61  52  72 CALM      30.01S
CENTRALIA*     CLEAR     64  53  68 CALM      30.01R
SALEM*         CLEAR     66  55  66 CALM      30.01S
METROPOLIS*    CLEAR     66  62  87 CALM      30.00S
$$

ILZ067-068-072-073-078-083-087-091-260100-
SOUTHEAST ILLINOIS

CITY           SKY/WX    TMP DP  RH WIND       PRES   REMARKS
LAWRENCEVILLE  HAZE      66  51  58 W5        29.99R VSB 1
FLORA*         CLEAR     62  53  72 CALM      30.01R
FAIRFIELD*     CLEAR     62  55  78 CALM      29.99S
HARRISBURG*    CLEAR     65  55  69 CALM      30.02R
ROBINSON*      CLEAR     63  52  67 W7        29.98S
CARMI*         CLEAR     66  55  69 CALM      29.99S
$$

ABBREVIATIONS USED IN REMARKS
   TC - TEMPERATURE IN CELSIUS
  WCI - WIND CHILL INDEX
   HX - HEAT INDEX
  VSB - VISIBILITY
$$




USA.gov is the U.S. government's official web portal to all federal, state and local government web resources and services.